+ View the NASA Portal
+ Center for Near-Earth Object Studies
IMPORTANT:
The SSD Announcement email list is now available. Major changes are coming in the near future, including possible hostname and/or URL changes. To be notified of such changes, subscribe to this email list.
Please visit
this page
for more details.
Don't show this message again
JPL Small-Body Database Browser
Search:
[
help
]
215791 (2004 LP24)
Classification:
Main-belt Asteroid
SPK-ID:
2215791
[
Ephemeris
|
Orbit Diagram
|
Orbital Elements
|
Mission Design
|
Physical Parameters
|
Discovery Circumstances
|
Close-Approach Data
]
[ show orbit diagram ]
Orbital Elements at Epoch 2458600.5 (2019-Apr-27.0) TDB
Reference:
JPL 14
(heliocentric ecliptic J2000)
Element
Value
Uncertainty (1-sigma)
Units
e
.2373381878497767
6.571e-08
a
3.137033608740393
3.207e-08
au
q
2.392495736818103
2.1271e-07
au
i
19.70356850442353
7.744e-06
deg
node
139.4108526320314
1.3304e-05
deg
peri
166.6570796290661
1.9692e-05
deg
M
240.8957689023987
1.0933e-05
deg
t
p
2459271.931748956976
(2021-Feb-26.43174896)
6.5497e-05
TDB
period
2029.44452432118
5.56
3.1121e-05
8.52e-08
d
yr
n
.1773884408692644
2.7202e-09
deg/d
Q
3.881571480662684
3.9682e-08
au
Orbit Determination Parameters
# obs. used (total)
303
data-arc span
6237 days (17.08 yr)
first obs. used
2002-02-07
last obs. used
2019-03-07
planetary ephem.
DE431
SB-pert. ephem.
SB431-N16
condition code
0
norm. resid. RMS
.50675
source
ORB
producer
Otto Matic
solution date
2019-Jul-13 18:38:09
Additional Information
Earth MOID
= 1.38107 au
Jupiter MOID
= 1.46469 au
T_jup
= 3.079
[ show covariance matrix ]
[
Ephemeris
|
Orbit Diagram
|
Orbital Elements
|
Mission Design
|
Physical Parameters
|
Discovery Circumstances
|
Close-Approach Data
]
Physical Parameter Table
Parameter
Symbol
Value
Units
Sigma
Reference
Notes
absolute magnitude
H
15.3
n/a
MPO348583
diameter
diameter
2.782
km
0.419
urn:nasa:pds:neowise_diameters_albedos::2.0[mainbelt] (http://adsabs.harvard.edu/abs/2011ApJ...741...68M)
geometric albedo
albedo
0.228
0.081
urn:nasa:pds:neowise_diameters_albedos::2.0[mainbelt] (http://adsabs.harvard.edu/abs/2011ApJ...741...68M)
215791 (2004 LP24)
Discovered 2004-Jun-12 by CSS at Catalina
Reference:
20090607/Numbers.arc
Last Updated:
2009-06-08
[ show close-approach data ]
[
Ephemeris
|
Orbit Diagram
|
Orbital Elements
|
Mission Design
|
Physical Parameters
|
Discovery Circumstances
|
Close-Approach Data
]
2019-Dec-12 01:34 UT
(server date/time)
Site Manager:
Ryan S. Park
Webmaster
:
Alan B. Chamberlin